When you browse on this site, cookies collect data to enhance your experience and personalize the content and advertising you see.
Visit our Privacy Policy to learn more. By continuing to use the site, you agree to this use of cookies and data.
  • In Spain
  • List of Countries
  • For 7 days
  • Water Temperature
  • Satellite Maps
  • Weather Map
  • Weather Widgets
  • user-avatar
    Login

    Hourly Weather Abha

    Today, 18 February, Monday

    Time Temperature Precipitation Wind Pressure Humidity
    00:00 +21°C° 0 mm 1 mps 644 mmHg 72%
    01:00 +20°C° 0 mm 1 mps 644 mmHg 73%
    02:00 +20°C° 0 mm 1 mps 643 mmHg 74%
    03:00 +18°C° 0 mm 2 mps 643 mmHg 77%
    04:00 +18°C° 0 mm 2 mps 643 mmHg 78%
    05:00 +18°C° 0 mm 2 mps 643 mmHg 79%
    06:00 +17°C° 0 mm 2 mps 643 mmHg 80%
    07:00 +18°C° 0 mm 2 mps 643 mmHg 76%
    08:00 +19°C° 0 mm 2 mps 643 mmHg 72%
    09:00 +19°C° 0 mm 3 mps 644 mmHg 69%
    10:00 +20°C° 0 mm 3 mps 644 mmHg 65%
    11:00 +21°C° 0 mm 4 mps 644 mmHg 61%
    12:00 +22°C° 0 mm 4 mps 644 mmHg 58%
    13:00 +22°C° 0 mm 5 mps 643 mmHg 58%
    14:00 +23°C° 0 mm 5 mps 643 mmHg 58%
    15:00 +23°C° 0 mm 5 mps 642 mmHg 58%
    16:00 +22°C° 0 mm 5 mps 642 mmHg 62%
    17:00 +21°C° 0 mm 4 mps 642 mmHg 65%
    18:00 +20°C° 0 mm 4 mps 642 mmHg 69%
    19:00 +20°C° 0 mm 3 mps 642 mmHg 71%
    20:00 +19°C° 0 mm 3 mps 642 mmHg 73%
    21:00 +19°C° 0 mm 3 mps 643 mmHg 76%
    22:00 +19°C° 0 mm 2 mps 642 mmHg 75%
    23:00 +18°C° 0 mm 2 mps 642 mmHg 75%

    Tomorrow, 19 February, Tuesday

    Time Temperature Precipitation Wind Pressure Humidity
    00:00 +18°C° 0 mm 2 mps 642 mmHg 75%
    01:00 +18°C° 0 mm 2 mps 642 mmHg 75%
    02:00 +17°C° 0 mm 2 mps 642 mmHg 75%
    03:00 +17°C° 0 mm 2 mps 641 mmHg 75%
    04:00 +17°C° 0 mm 2 mps 641 mmHg 75%
    05:00 +16°C° 0 mm 1 mps 641 mmHg 75%
    06:00 +16°C° 0 mm 1 mps 641 mmHg 75%
    07:00 +17°C° 0 mm 2 mps 642 mmHg 69%
    08:00 +17°C° 0 mm 2 mps 643 mmHg 63%
    09:00 +18°C° 0 mm 2 mps 643 mmHg 57%
    10:00 +19°C° 0 mm 3 mps 643 mmHg 52%
    11:00 +21°C° 0 mm 4 mps 644 mmHg 47%
    12:00 +22°C° 0 mm 4 mps 644 mmHg 41%
    13:00 +22°C° 0 mm 5 mps 644 mmHg 39%
    14:00 +22°C° 0 mm 5 mps 643 mmHg 37%
    15:00 +23°C° 0 mm 5 mps 643 mmHg 34%
    16:00 +22°C° 0 mm 5 mps 643 mmHg 36%
    17:00 +21°C° 0 mm 4 mps 643 mmHg 38%
    18:00 +20°C° 0 mm 4 mps 643 mmHg 40%
    19:00 +20°C° 0 mm 3 mps 644 mmHg 42%
    20:00 +19°C° 0 mm 2 mps 644 mmHg 45%
    21:00 +19°C° 0 mm 1 mps 644 mmHg 47%
    22:00 +19°C° 0 mm 1 mps 644 mmHg 48%
    23:00 +19°C° 0 mm 1 mps 644 mmHg 48%

    Day after tomorrow, 20 February, Wednesday

    Time Temperature Precipitation Wind Pressure Humidity
    00:00 +16°C° 0 mm 0 mps 644 mmHg 49%
    01:00 +18°C° 0 mm 1 mps 644 mmHg 48%
    02:00 +16°C° 0 mm 1 mps 643 mmHg 47%
    03:00 +16°C° 0 mm 1 mps 643 mmHg 46%
    04:00 +15°C° 0 mm 1 mps 643 mmHg 44%
    05:00 +15°C° 0 mm 2 mps 643 mmHg 41%
    06:00 +15°C° 0 mm 2 mps 643 mmHg 38%
    07:00 +16°C° 0 mm 2 mps 644 mmHg 36%
    08:00 +18°C° 0 mm 1 mps 644 mmHg 34%
    09:00 +19°C° 0 mm 1 mps 645 mmHg 32%
    10:00 +20°C° 0 mm 2 mps 645 mmHg 29%
    11:00 +21°C° 0 mm 3 mps 646 mmHg 26%
    12:00 +24°C° 0 mm 3 mps 646 mmHg 23%
    13:00 +23°C° 0 mm 4 mps 645 mmHg 23%
    14:00 +23°C° 0 mm 4 mps 645 mmHg 24%
    15:00 +25°C° 0 mm 4 mps 644 mmHg 24%
    16:00 +23°C° 0 mm 4 mps 644 mmHg 30%
    17:00 +22°C° 0 mm 3 mps 644 mmHg 35%
    18:00 +21°C° 0 mm 3 mps 644 mmHg 40%
    19:00 +20°C° 0 mm 2 mps 644 mmHg 43%
    20:00 +21°C° 0 mm 1 mps 645 mmHg 46%
    21:00 +20°C° 0 mm 1 mps 645 mmHg 50%
    22:00 +20°C° 0 mm 1 mps 645 mmHg 50%
    23:00 +19°C° 0 mm 1 mps 645 mmHg 51%

    21 February, Thursday

    Time Temperature Precipitation Wind Pressure Humidity
    00:00 +17°C° 0 mm 0 mps 645 mmHg 52%
    01:00 +18°C° 0 mm 1 mps 644 mmHg 53%
    02:00 +18°C° 0 mm 1 mps 644 mmHg 55%
    03:00 +16°C° 0 mm 1 mps 643 mmHg 56%
    04:00 +16°C° 0 mm 1 mps 643 mmHg 56%
    05:00 +16°C° 0 mm 1 mps 643 mmHg 56%
    06:00 +15°C° 0 mm 1 mps 643 mmHg 56%
    07:00 +18°C° 0 mm 1 mps 644 mmHg 50%
    08:00 +18°C° 0 mm 2 mps 645 mmHg 45%
    09:00 +20°C° 0 mm 3 mps 646 mmHg 40%
    10:00 +21°C° 0 mm 3 mps 646 mmHg 40%
    11:00 +22°C° 0 mm 4 mps 646 mmHg 41%
    12:00 +23°C° 0 mm 5 mps 646 mmHg 41%
    13:00 +23°C° 0 mm 5 mps 645 mmHg 43%
    14:00 +23°C° 0 mm 5 mps 645 mmHg 46%
    15:00 +23°C° 0 mm 5 mps 644 mmHg 48%
    16:00 +22°C° 0 mm 4 mps 644 mmHg 52%
    17:00 +22°C° 0 mm 4 mps 644 mmHg 55%
    18:00 +21°C° 0 mm 3 mps 644 mmHg 59%
    19:00 +20°C° 0 mm 3 mps 645 mmHg 61%
    20:00 +20°C° 0 mm 2 mps 645 mmHg 64%
    21:00 +19°C° 0 mm 2 mps 645 mmHg 66%
    22:00 +19°C° 0 mm 2 mps 645 mmHg 67%
    23:00 +19°C° 0 mm 2 mps 645 mmHg 68%

    22 February, Friday

    Time Temperature Precipitation Wind Pressure Humidity
    00:00 +19°C° 0 mm 2 mps 645 mmHg 69%
    01:00 +18°C° 0 mm 2 mps 644 mmHg 70%
    02:00 +18°C° 0 mm 2 mps 644 mmHg 71%
    03:00 +18°C° 0 mm 2 mps 643 mmHg 72%
    04:00 +17°C° 0 mm 2 mps 643 mmHg 74%
    05:00 +17°C° 0 mm 2 mps 643 mmHg 75%
    06:00 +17°C° 0 mm 2 mps 644 mmHg 76%
    07:00 +18°C° 0 mm 2 mps 644 mmHg 72%
    08:00 +19°C° 0 mm 3 mps 645 mmHg 67%
    09:00 +20°C° 0 mm 3 mps 645 mmHg 62%
    10:00 +21°C° 0 mm 4 mps 645 mmHg 59%
    11:00 +22°C° 0 mm 4 mps 645 mmHg 56%
    12:00 +23°C° 0 mm 5 mps 645 mmHg 53%
    13:00 +23°C° 0 mm 5 mps 645 mmHg 54%
    14:00 +23°C° 0 mm 5 mps 644 mmHg 55%
    15:00 +23°C° 0 mm 5 mps 644 mmHg 55%
    16:00 +22°C° 0 mm 4 mps 644 mmHg 58%
    17:00 +21°C° 0 mm 3 mps 644 mmHg 61%
    18:00 +21°C° 0 mm 3 mps 644 mmHg 64%
    19:00 +20°C° 0 mm 2 mps 644 mmHg 67%
    20:00 +20°C° 0 mm 2 mps 644 mmHg 69%
    21:00 +20°C° 0 mm 1 mps 644 mmHg 72%
    22:00 +20°C° 0 mm 1 mps 644 mmHg 72%
    23:00 +20°C° 0 mm 1 mps 644 mmHg 73%

    23 February, Saturday

    Time Temperature Precipitation Wind Pressure Humidity
    00:00 +20°C° 0 mm 1 mps 644 mmHg 74%
    01:00 +19°C° 0 mm 1 mps 644 mmHg 75%
    02:00 +19°C° 0 mm 1 mps 643 mmHg 76%
    03:00 +19°C° 0 mm 1 mps 643 mmHg 77%
    04:00 +19°C° 0 mm 1 mps 643 mmHg 77%
    05:00 +18°C° 0 mm 1 mps 643 mmHg 78%
    06:00 +18°C° 0 mm 1 mps 643 mmHg 78%
    07:00 +18°C° 0 mm 2 mps 644 mmHg 74%
    08:00 +19°C° 0 mm 2 mps 644 mmHg 69%
    09:00 +20°C° 0 mm 2 mps 645 mmHg 65%
    10:00 +21°C° 0 mm 3 mps 645 mmHg 60%
    11:00 +22°C° 0 mm 3 mps 645 mmHg 56%
    12:00 +23°C° 0 mm 4 mps 645 mmHg 51%
    13:00 +25°C° 0 mm 4 mps 644 mmHg 50%
    14:00 +25°C° 0 mm 4 mps 644 mmHg 48%
    15:00 +26°C° 0 mm 4 mps 644 mmHg 46%
    16:00 +25°C° 0 mm 4 mps 644 mmHg 51%
    17:00 +24°C° 0 mm 3 mps 644 mmHg 56%
    18:00 +22°C° 0 mm 3 mps 644 mmHg 60%
    19:00 +23°C° 0 mm 2 mps 644 mmHg 64%
    20:00 +21°C° 0 mm 2 mps 644 mmHg 67%
    21:00 +21°C° 0 mm 1 mps 644 mmHg 71%
    22:00 +21°C° 0 mm 1 mps 644 mmHg 72%
    23:00 +21°C° 0 mm 1 mps 644 mmHg 73%
    Show more